Skip Page Navigation
NASA JPL Caltech
NASA Logo - Jet Propulsion Laboratory + View the NASA Portal
+ Center for Near-Earth Object Studies
JPL Home Earth Solar System Stars & Galaxies Technology
JPL Solar System Dynamics
BODIES ORBITS EPHEMERIDES TOOLS PHYSICAL DATA DISCOVERY FAQ SITE MAP
JPL Small-Body Database Browser
Search: [ help ]  
324621 (2007 AE10)
Classification: Main-belt Asteroid          SPK-ID: 2324621
Ephemeris | Orbit Diagram | Orbital Elements | Mission Design | Physical Parameters | Discovery Circumstances | Close-Approach Data ]

[ show orbit diagram ]
Orbital Elements at Epoch 2459000.5 (2020-May-31.0) TDB
Reference: JPL 9 (heliocentric ecliptic J2000)
 Element Value Uncertainty (1-sigma)   Units 
e .3181337463890045 5.1418e-08  
a 2.759520654987535 1.5282e-08 au
q 1.88162401077851 1.4271e-07 au
i 8.861395735602146 7.3626e-06 deg
node 115.2437324533166 3.5331e-05 deg
peri 282.343279927295 4.2817e-05 deg
M 10.36887647989183 1.6357e-05 deg
tp 2458952.274348802002
(2020-Apr-12.77434880)
7.6004e-05 TDB
period 1674.360232272768
4.58
1.3908e-05
3.808e-08
d
yr
n .215007495436832 1.786e-09 deg/d
Q 3.637417299196559 2.0143e-08 au
  Orbit Determination Parameters
   # obs. used (total)      199  
   data-arc span      6567 days (17.98 yr)  
   first obs. used      2001-08-29  
   last obs. used      2019-08-22  
   planetary ephem.      DE431  
   SB-pert. ephem.      SB431-N16  
   condition code      0  
   norm. resid. RMS      .57513  
   source      ORB  
   producer      Otto Matic  
   solution date      2019-Sep-24 06:13:22  

Additional Information
 Earth MOID = .912953 au 
 Jupiter MOID = 1.88134 au 
 T_jup = 3.250 
[ show covariance matrix ]

Ephemeris | Orbit Diagram | Orbital Elements | Mission Design | Physical Parameters | Discovery Circumstances | Close-Approach Data ]

Physical Parameter Table
Parameter Symbol Value Units Sigma Reference Notes
absolute magnitude H 16.9   n/a MPO408337  

324621 (2007 AE10)          Discovered 2007-Jan-09 by Mt. Lemmon Survey at Mount Lemmon
Reference: 20120406/Numbers.arcLast Updated: 2012-04-09

[ show close-approach data ]
Ephemeris | Orbit Diagram | Orbital Elements | Mission Design | Physical Parameters | Discovery Circumstances | Close-Approach Data ]
ABOUT SSD CREDITS/AWARDS PRIVACY/COPYRIGHT GLOSSARY LINKS
FirstGov 2020-Oct-29 02:42 UT
(server date/time)  
NASA Home Page
Site Manager:   Ryan S. Park
Webmaster  Alan B. Chamberlin